When you browse on this site, cookies collect data to enhance your experience and personalize the content and advertising you see.
Visit our Privacy Policy to learn more. By continuing to use the site, you agree to this use of cookies and data.
  • In Österreich
  • Länderverzeichnis
  • Für 7 Tage
  • Wassertemperatur
  • Satellitenkarten
  • Wetterkarte
  • News
  • Widgets
  • user-avatar
    Anmelden

    Stündliche Wetter Rechane

    Heute, 21 Juli, Sonntag

    Zeit Temperatur Niederschläge Wind Luftdruck Luftfeuchtigkeit
    00:00 +14°C° 0 mm 2 m/S 745 mmHg 98%
    01:00 +14°C° 0 mm 2 m/S 745 mmHg 98%
    02:00 +13°C° 0 mm 2 m/S 746 mmHg 98%
    03:00 +13°C° 0 mm 2 m/S 746 mmHg 98%
    04:00 +14°C° 0 mm 2 m/S 746 mmHg 98%
    05:00 +14°C° 0 mm 2 m/S 746 mmHg 98%
    06:00 +15°C° 0 mm 2 m/S 746 mmHg 93%
    07:00 +17°C° 0 mm 2 m/S 746 mmHg 87%
    08:00 +19°C° 0 mm 2 m/S 746 mmHg 82%
    09:00 +20°C° 0.1 mm 2 m/S 747 mmHg 76%
    10:00 +21°C° 0.1 mm 2 m/S 747 mmHg 70%
    11:00 +23°C° 0.1 mm 2 m/S 747 mmHg 63%
    12:00 +24°C° 0.5 mm 2 m/S 747 mmHg 63%
    13:00 +24°C° 0.5 mm 2 m/S 746 mmHg 63%
    14:00 +24°C° 0.5 mm 2 m/S 746 mmHg 63%
    15:00 +24°C° 0.8 mm 2 m/S 746 mmHg 69%
    16:00 +23°C° 0.8 mm 1 m/S 746 mmHg 75%
    17:00 +23°C° 0.8 mm 1 m/S 746 mmHg 81%
    18:00 +21°C° 0.2 mm 1 m/S 746 mmHg 85%
    19:00 +20°C° 0.2 mm 1 m/S 746 mmHg 88%
    20:00 +16°C° 0.2 mm 0 m/S 746 mmHg 92%
    21:00 +15°C° 0 mm 0 m/S 746 mmHg 92%
    22:00 +15°C° 0 mm 0 m/S 746 mmHg 92%
    23:00 +14°C° 0 mm 0 m/S 746 mmHg 93%

    Morgen, 22 Juli, Montag

    Zeit Temperatur Niederschläge Wind Luftdruck Luftfeuchtigkeit
    00:00 +14°C° 0 mm 0 m/S 746 mmHg 93%
    01:00 +13°C° 0 mm 0 m/S 746 mmHg 94%
    02:00 +13°C° 0 mm 0 m/S 746 mmHg 94%
    03:00 +13°C° 0 mm 0 m/S 745 mmHg 94%
    04:00 +14°C° 0 mm 1 m/S 745 mmHg 94%
    05:00 +15°C° 0 mm 1 m/S 745 mmHg 94%
    06:00 +16°C° 0 mm 1 m/S 745 mmHg 90%
    07:00 +19°C° 0 mm 1 m/S 745 mmHg 85%
    08:00 +21°C° 0 mm 1 m/S 745 mmHg 81%
    09:00 +22°C° 0 mm 1 m/S 745 mmHg 73%
    10:00 +24°C° 0 mm 1 m/S 745 mmHg 64%
    11:00 +26°C° 0 mm 1 m/S 745 mmHg 56%
    12:00 +26°C° 0.3 mm 1 m/S 744 mmHg 59%
    13:00 +25°C° 0.3 mm 1 m/S 744 mmHg 63%
    14:00 +25°C° 0.3 mm 1 m/S 744 mmHg 66%
    15:00 +23°C° 0.7 mm 1 m/S 744 mmHg 76%
    16:00 +21°C° 0.7 mm 1 m/S 744 mmHg 86%
    17:00 +17°C° 0.7 mm 2 m/S 744 mmHg 95%
    18:00 +18°C° 0.2 mm 1 m/S 743 mmHg 96%
    19:00 +18°C° 0.2 mm 1 m/S 743 mmHg 96%
    20:00 +18°C° 0.2 mm 1 m/S 743 mmHg 96%
    21:00 +18°C° 0.1 mm 1 m/S 743 mmHg 96%
    22:00 +18°C° 0.1 mm 1 m/S 743 mmHg 95%
    23:00 +16°C° 0.1 mm 1 m/S 743 mmHg 95%

    übermorgen, 23 Juli, Dienstag

    Zeit Temperatur Niederschläge Wind Luftdruck Luftfeuchtigkeit
    00:00 +16°C° 0 mm 1 m/S 743 mmHg 94%
    01:00 +16°C° 0 mm 1 m/S 743 mmHg 94%
    02:00 +16°C° 0 mm 1 m/S 743 mmHg 94%
    03:00 +16°C° 0.1 mm 1 m/S 743 mmHg 95%
    04:00 +16°C° 0.1 mm 1 m/S 743 mmHg 96%
    05:00 +16°C° 0.1 mm 1 m/S 743 mmHg 97%
    06:00 +16°C° 0.1 mm 1 m/S 743 mmHg 97%
    07:00 +16°C° 0.1 mm 1 m/S 743 mmHg 96%
    08:00 +16°C° 0.1 mm 1 m/S 742 mmHg 96%
    09:00 +18°C° 0.1 mm 1 m/S 743 mmHg 96%
    10:00 +18°C° 0.1 mm 1 m/S 743 mmHg 95%
    11:00 +19°C° 0.1 mm 1 m/S 743 mmHg 94%
    12:00 +19°C° 0.2 mm 1 m/S 743 mmHg 92%
    13:00 +20°C° 0.2 mm 1 m/S 743 mmHg 89%
    14:00 +20°C° 0.2 mm 1 m/S 743 mmHg 87%
    15:00 +20°C° 0.1 mm 1 m/S 743 mmHg 85%
    16:00 +20°C° 0.1 mm 1 m/S 744 mmHg 83%
    17:00 +21°C° 0.1 mm 1 m/S 744 mmHg 81%
    18:00 +20°C° 0 mm 1 m/S 744 mmHg 84%
    19:00 +19°C° 0 mm 1 m/S 744 mmHg 87%
    20:00 +18°C° 0 mm 1 m/S 744 mmHg 90%
    21:00 +16°C° 0 mm 1 m/S 744 mmHg 92%
    22:00 +15°C° 0 mm 1 m/S 744 mmHg 93%
    23:00 +15°C° 0 mm 1 m/S 745 mmHg 95%

    24 Juli, Mittwoch

    Zeit Temperatur Niederschläge Wind Luftdruck Luftfeuchtigkeit
    00:00 +15°C° 0 mm 1 m/S 745 mmHg 95%
    01:00 +14°C° 0 mm 1 m/S 745 mmHg 94%
    02:00 +14°C° 0 mm 1 m/S 745 mmHg 94%
    03:00 +14°C° 0 mm 1 m/S 745 mmHg 93%
    04:00 +14°C° 0 mm 1 m/S 745 mmHg 92%
    05:00 +14°C° 0 mm 1 m/S 745 mmHg 91%
    06:00 +16°C° 0 mm 1 m/S 745 mmHg 84%
    07:00 +19°C° 0 mm 1 m/S 745 mmHg 77%
    08:00 +22°C° 0 mm 1 m/S 745 mmHg 69%
    09:00 +23°C° 0 mm 2 m/S 746 mmHg 61%
    10:00 +24°C° 0 mm 2 m/S 746 mmHg 53%
    11:00 +26°C° 0 mm 2 m/S 746 mmHg 45%
    12:00 +26°C° 0 mm 3 m/S 746 mmHg 44%
    13:00 +26°C° 0 mm 3 m/S 746 mmHg 42%
    14:00 +27°C° 0 mm 3 m/S 746 mmHg 41%
    15:00 +26°C° 0 mm 3 m/S 746 mmHg 44%
    16:00 +26°C° 0 mm 3 m/S 746 mmHg 48%
    17:00 +25°C° 0 mm 2 m/S 746 mmHg 51%
    18:00 +23°C° 0 mm 2 m/S 746 mmHg 59%
    19:00 +20°C° 0 mm 2 m/S 746 mmHg 67%
    20:00 +19°C° 0 mm 1 m/S 746 mmHg 76%
    21:00 +18°C° 0 mm 1 m/S 746 mmHg 76%
    22:00 +18°C° 0 mm 1 m/S 746 mmHg 77%
    23:00 +16°C° 0 mm 1 m/S 747 mmHg 77%

    25 Juli, Donnerstag

    Zeit Temperatur Niederschläge Wind Luftdruck Luftfeuchtigkeit
    00:00 +15°C° 0 mm 1 m/S 747 mmHg 78%
    01:00 +15°C° 0 mm 1 m/S 747 mmHg 79%
    02:00 +14°C° 0 mm 1 m/S 747 mmHg 80%
    03:00 +15°C° 0 mm 1 m/S 747 mmHg 81%
    04:00 +15°C° 0 mm 1 m/S 747 mmHg 82%
    05:00 +15°C° 0 mm 1 m/S 747 mmHg 83%
    06:00 +18°C° 0 mm 1 m/S 747 mmHg 77%
    07:00 +20°C° 0 mm 1 m/S 747 mmHg 71%
    08:00 +23°C° 0 mm 1 m/S 748 mmHg 65%
    09:00 +24°C° 0 mm 1 m/S 748 mmHg 60%
    10:00 +25°C° 0 mm 2 m/S 747 mmHg 56%
    11:00 +27°C° 0 mm 2 m/S 747 mmHg 51%
    12:00 +27°C° 0 mm 2 m/S 747 mmHg 51%
    13:00 +27°C° 0 mm 2 m/S 747 mmHg 51%
    14:00 +27°C° 0 mm 2 m/S 747 mmHg 52%
    15:00 +27°C° 0.1 mm 2 m/S 747 mmHg 56%
    16:00 +26°C° 0.1 mm 2 m/S 747 mmHg 61%
    17:00 +26°C° 0.1 mm 2 m/S 747 mmHg 65%
    18:00 +24°C° 0.2 mm 2 m/S 747 mmHg 75%
    19:00 +21°C° 0.2 mm 2 m/S 747 mmHg 85%
    20:00 +19°C° 0.2 mm 2 m/S 747 mmHg 94%
    21:00 +18°C° 0 mm 2 m/S 747 mmHg 93%
    22:00 +17°C° 0 mm 2 m/S 747 mmHg 92%
    23:00 +16°C° 0 mm 2 m/S 747 mmHg 91%

    26 Juli, Freitag

    Zeit Temperatur Niederschläge Wind Luftdruck Luftfeuchtigkeit
    00:00 +15°C° 0 mm 2 m/S 747 mmHg 91%
    01:00 +14°C° 0 mm 2 m/S 747 mmHg 91%
    02:00 +13°C° 0 mm 2 m/S 748 mmHg 91%
    03:00 +13°C° 0 mm 2 m/S 748 mmHg 90%
    04:00 +13°C° 0 mm 2 m/S 748 mmHg 90%
    05:00 +13°C° 0 mm 2 m/S 748 mmHg 89%
    06:00 +15°C° 0 mm 2 m/S 748 mmHg 81%
    07:00 +16°C° 0 mm 2 m/S 748 mmHg 73%
    08:00 +18°C° 0 mm 3 m/S 748 mmHg 65%
    09:00 +20°C° 0 mm 3 m/S 748 mmHg 60%
    10:00 +21°C° 0 mm 3 m/S 748 mmHg 55%
    11:00 +23°C° 0 mm 4 m/S 748 mmHg 49%
    12:00 +23°C° 0 mm 4 m/S 748 mmHg 49%
    13:00 +23°C° 0 mm 4 m/S 748 mmHg 50%
    14:00 +25°C° 0 mm 4 m/S 747 mmHg 50%
    15:00 +23°C° 0 mm 4 m/S 747 mmHg 52%
    16:00 +23°C° 0 mm 4 m/S 747 mmHg 54%
    17:00 +23°C° 0 mm 4 m/S 747 mmHg 56%
    18:00 +21°C° 0 mm 3 m/S 747 mmHg 63%
    19:00 +19°C° 0 mm 3 m/S 747 mmHg 70%
    20:00 +17°C° 0 mm 2 m/S 747 mmHg 78%
    21:00 +16°C° 0 mm 2 m/S 747 mmHg 80%
    22:00 +15°C° 0 mm 2 m/S 747 mmHg 83%
    23:00 +14°C° 0 mm 2 m/S 747 mmHg 86%
    Mehr zeigen